Weather observations for the past three days for
Riverton Regional Airport
Imperial (Metric)
Date Time (mdt) Wind (mph) Vis. (mi.) Weather Sky Cond. Temperature (ºF) Relative Humidity Wind Chill (°F) Heat Index (°F) Pressure Precipitation (in)
Air Dwpt 6 hour altimeter (in) sea level (mb) 1 hr 3 hr 6 hr
Max. Min.
15 02:53 W 7 10.00 Fair CLR 66 45 47% 30.18 1014.0
15 01:53 N 5 10.00 Fair CLR 69.1 44.1 41% 30.17 1013.4
15 00:53 Calm 10.00 Fair CLR 71.1 45 39% 30.18 1013.6
14 23:53 NW 16 10.00 Fair CLR 73.9 45 90 72 36% 30.16 1012.9
14 22:53 NW 15 10.00 Fair CLR 73 45 37% 30.15 1013.3
14 21:53 NW 13 10.00 Fair CLR 73 45 37% 30.15 1013.3
14 20:53 NW 14 10.00 Fair CLR 75.9 48 37% 78 30.15 1013.0
14 19:53 SW 14 10.00 Partly Cloudy SCT110 82.9 44.1 25% 81 30.13 1012.1
14 18:53 SW 16 G 26 10.00 Fair CLR 84 44.1 25% 82 30.11 1011.6
14 17:53 SW 16 10.00 Fair CLR 90 37.9 95 88 16% 86 30.1 1011.3
14 16:53 W 18 G 25 10.00 Fair CLR 91 37.9 15% 87 30.12 1011.7
14 15:53 W 21 G 30 10.00 Fair and Breezy CLR 91 39.9 17% 87 30.14 1012.1
14 14:53 SW 26 G 41 10.00 Fair and Windy CLR 90 39 17% 86 30.14 1012.6
14 13:53 Vrbl 3 G 17 10.00 Fair CLR 91.9 36 14% 88 30.15 1012.4
14 12:53 S 10 10.00 Fair CLR 91 37.9 15% 87 30.17 1013.2
14 11:53 S 8 10.00 Fair CLR 89.1 39.9 89.1 68 18% 85 30.19 1013.9
14 10:53 S 6 10.00 Fair CLR 82 43 25% 80 30.2 1014.5
14 09:53 SE 5 10.00 Fair CLR 80.1 50 35% 80 30.2 1014.2
14 08:53 NE 5 10.00 Fair CLR 80.1 37 21% 79 30.2 1014.3
14 07:53 NW 8 10.00 Fair CLR 73.9 35.1 24% 30.2 1014.4
14 06:53 NW 9 10.00 Fair CLR 72 33.1 24% 30.19 1013.6
14 05:53 W 7 10.00 Fair CLR 70 33.1 75.9 64.9 26% 30.18 1013.1
14 04:53 SW 8 10.00 Fair CLR 68 35.1 30% 30.17 1013.5
14 03:53 S 5 10.00 Fair CLR 72 34 25% 30.16 1012.9
14 02:53 SW 7 10.00 Fair CLR 70 34 27% 30.17 1013.1
14 01:53 SW 7 10.00 Fair CLR 72 33.1 24% 30.18 1013.4
14 00:53 NW 12 10.00 Fair CLR 75 30.9 20% 76 30.18 1013.5
13 23:53 Vrbl 7 10.00 Fair CLR 75 33.1 97 75 22% 76 30.18 1013.7
13 22:53 SW 9 10.00 Fair CLR 79 34 20% 78 30.17 1013.7
13 21:53 W 14 10.00 Fair CLR 82.9 34 17% 80 30.17 1013.3
13 20:53 W 10 10.00 Fair CLR 86 34 15% 83 30.15 1012.7
13 19:53 SW 13 10.00 Fair CLR 88 36 16% 84 30.14 1012.6
13 18:53 W 9 10.00 Fair CLR 93.9 32 11% 89 30.13 1012.1
13 17:53 NW 12 G 23 10.00 Fair CLR 97 30 97 86 9% 92 30.13 1011.9
13 16:53 W 9 10.00 Fair CLR 93.9 30.9 11% 89 30.14 1012.6
13 15:53 S 7 10.00 Fair CLR 93 32 11% 89 30.16 1013.1
13 14:53 Vrbl 3 10.00 Fair CLR 93.9 32 11% 89 30.17 1013.3
13 13:53 Calm 10.00 Fair CLR 93 32 11% 89 30.18 1013.5
13 12:53 Vrbl 5 10.00 Fair CLR 89.1 39 17% 85 30.2 1014.3
13 11:53 Vrbl 3 10.00 Fair CLR 87.1 43 87.1 59 21% 84 30.22 1015.0
13 10:53 Calm 10.00 Fair CLR 81 44.1 27% 80 30.23 1016.1
13 09:53 E 6 10.00 Fair CLR 78.1 43 29% 78 30.24 1016.4
13 08:53 E 5 10.00 Fair CLR 75.9 44.1 32% 77 30.24 1016.1
13 07:53 NE 3 10.00 Fair CLR 72 41 33% 30.24 1015.9
13 06:53 NW 7 10.00 Fair CLR 66 42.1 42% 30.23 1015.6
13 05:53 Calm 10.00 Fair CLR 64 39 77 64 40% 30.21 1015.0
13 04:53 W 7 10.00 Fair CLR 66 39 37% 30.2 1014.4
13 03:53 W 7 10.00 Fair CLR 69.1 39 33% 30.2 1013.8
13 02:53 SW 9 10.00 Fair CLR 68 39 35% 30.19 1013.7
13 01:53 E 3 10.00 Fair CLR 71.1 39 31% 30.18 1013.3
13 00:53 N 12 10.00 Fair CLR 73.9 39 28% 30.17 1013.1
12 23:53 N 17 G 36 10.00 Fair CLR 77 37.9 97 73 24% 77 30.18 1013.1
12 22:53 NW 10 10.00 Fair CLR 73 33.1 23% 30.15 1013.0
12 21:53 NW 12 10.00 Fair CLR 77 34 21% 77 30.13 1012.3
12 20:53 NW 10 10.00 Fair CLR 81 30.9 16% 79 30.11 1011.7
12 19:53 NW 13 10.00 Fair CLR 89.1 36 15% 85 30.1 1010.9
12 18:53 NW 14 10.00 Fair CLR 93 33.1 12% 89 30.09 1010.7
12 17:53 NW 20 G 28 10.00 Fair CLR 95 28 99 90 9% 90 30.08 1010.5
12 16:53 NW 24 G 35 10.00 Fair and Breezy CLR 96.1 27 8% 91 30.08 1010.7
12 15:53 NW 20 G 29 10.00 Fair CLR 98.1 25 7% 93 30.09 1010.1
12 14:53 NW 13 G 20 10.00 Fair CLR 97 30 9% 92 30.11 1010.5
12 13:53 NW 8 10.00 Fair CLR 95 33.1 11% 90 30.13 1011.2
12 12:53 NW 12 G 22 10.00 Fair CLR 93 33.1 12% 89 30.15 1012.3
12 11:53 NW 13 G 18 10.00 Fair CLR 91 35.1 91 63 14% 87 30.16 1012.9
12 10:53 Vrbl 3 10.00 Fair CLR 82.9 39.9 22% 81 30.16 1013.2
12 09:53 E 6 10.00 Fair CLR 80.1 41 25% 79 30.17 1013.5
12 08:53 SE 6 10.00 Fair CLR 75 37 25% 77 30.17 1013.6
12 07:53 E 7 10.00 Fair CLR 72 36 27% 30.16 1013.0
12 06:53 E 8 10.00 Fair CLR 64.9 37 36% 30.14 1012.5
12 05:53 NW 16 10.00 Fair CLR 63 39 75.9 60.1 41% 30.14 1012.5
12 04:53 W 9 10.00 Fair CLR 60.1 34 38% 30.11 1011.6
12 03:53 E 7 10.00 Fair CLR 71.1 36 28% 30.09 1010.4
Date Time (mdt) Wind (mph) Vis. (mi.) Weather Sky Cond. Air Dwpt Max. Min. Relative Humidity Wind Chill (°F) Heat Index (°F) altimeter (in) sea level (mb) 1 hr 3 hr 6 hr
6 hour
Temperature (ºF) Pressure Precipitation (in)